TimeCST,TemperatureF,Dew PointF,Humidity,Sea Level PressureIn,VisibilityMPH,Wind Direction,Wind SpeedMPH,Gust SpeedMPH,PrecipitationIn,Events,Conditions,WindDirDegrees,DateUTC
12:54 AM,33.1,23.0,66,30.35,10.0,WNW,4.6,-,N/A,,Clear,290,2011-12-25 06:54:00
1:54 AM,28.0,21.0,75,30.35,10.0,Calm,Calm,-,N/A,,Clear,0,2011-12-25 07:54:00
2:54 AM,27.0,19.9,75,30.35,10.0,Calm,Calm,-,N/A,,Clear,0,2011-12-25 08:54:00
3:54 AM,26.1,19.0,75,30.36,10.0,Calm,Calm,-,N/A,,Clear,0,2011-12-25 09:54:00
4:54 AM,24.1,18.0,77,30.37,10.0,Calm,Calm,-,N/A,,Clear,0,2011-12-25 10:54:00
5:54 AM,21.9,17.1,82,30.39,10.0,SSW,4.6,-,N/A,,Clear,210,2011-12-25 11:54:00
6:54 AM,21.9,17.1,82,30.42,10.0,SSW,4.6,-,N/A,,Clear,210,2011-12-25 12:54:00
7:54 AM,23.0,17.1,78,30.44,10.0,WSW,3.5,-,N/A,,Clear,240,2011-12-25 13:54:00
8:54 AM,27.0,21.9,81,30.48,10.0,Calm,Calm,-,N/A,,Clear,0,2011-12-25 14:54:00
9:54 AM,35.1,25.0,67,30.50,10.0,Calm,Calm,-,N/A,,Clear,0,2011-12-25 15:54:00
10:54 AM,42.1,25.0,51,30.51,10.0,North,9.2,-,N/A,,Clear,350,2011-12-25 16:54:00
11:54 AM,46.0,24.1,42,30.48,10.0,NNW,8.1,-,N/A,,Clear,330,2011-12-25 17:54:00
12:54 PM,48.0,23.0,37,30.45,10.0,NNW,8.1,-,N/A,,Clear,340,2011-12-25 18:54:00
1:54 PM,48.9,21.9,35,30.44,10.0,Calm,Calm,-,N/A,,Clear,0,2011-12-25 19:54:00
2:54 PM,50.0,21.0,32,30.43,10.0,WNW,4.6,-,N/A,,Clear,290,2011-12-25 20:54:00
3:54 PM,48.0,23.0,37,30.43,10.0,WNW,4.6,-,N/A,,Clear,300,2011-12-25 21:54:00
4:54 PM,44.6,23.0,43,30.40,10.0,Calm,Calm,-,N/A,,Clear,0,2011-12-25 22:54:00
5:54 PM,30.9,21.0,67,30.44,10.0,Calm,Calm,-,N/A,,Clear,0,2011-12-25 23:54:00
6:54 PM,30.9,21.0,67,30.44,10.0,Calm,Calm,-,N/A,,Clear,0,2011-12-26 00:54:00
7:54 PM,27.0,21.0,78,30.42,10.0,Calm,Calm,-,N/A,,Clear,0,2011-12-26 01:54:00
8:54 PM,25.0,18.0,75,30.40,10.0,Calm,Calm,-,N/A,,Clear,0,2011-12-26 02:54:00
9:54 PM,23.0,19.4,86,30.31,10.0,East,3.5,-,N/A,,Clear,100,2011-12-26 03:54:00
10:54 PM,28.0,19.9,72,30.35,10.0,WSW,4.6,-,N/A,,Clear,240,2011-12-26 04:54:00
11:54 PM,24.1,18.0,77,30.33,10.0,SSE,3.5,-,N/A,,Clear,160,2011-12-26 05:54:00